Theta_e
317 319 320 321 322 324 324 323 322 323 327 328 328 328 327 326 325 323 322 322 321 319 316 314 311 315 318 321 320 319 320 319 320 320 321 322 327 329 330 330 331 330 329 331 333 336 332 331 328 326 327 327 325 324 323 323 324 324 324 324 324 324 324 325 328 327 324 321 322 322 323 324 326 323 322 322 322 321 321 321 323 322 322 324 327
317 317 318 320 321 323 323 322 322 321 325 328 328 328 327 326 324 323 321 320 320 318 317 316 315 316 316 318 318 318 317 315 315 318 320 321 319 319 320 319 323 330 329 328 331 330 330 329 328 326 325 325 326 325 324 327 324 324 324 322 324 325 326 328 326 323 319 321 321 318 316 322 327 322 321 322 322 320 319 319 320 320 322 323 328
314 316 317 319 320 322 322 321 321 322 325 327 328 328 327 325 323 322 321 320 320 319 316 316 317 317 317 316 318 315 316 316 317 319 319 317 317 317 318 317 318 319 324 327 328 328 328 328 328 327 327 328 325 323 322 321 321 323 323 323 323 322 322 324 322 323 319 318 316 315 312 309 312 316 319 321 321 319 319 319 321 322 323 324 328
312 314 315 317 319 320 320 320 321 321 324 327 328 327 326 324 322 321 320 320 320 321 321 318 320 317 318 318 316 316 317 319 316 315 314 315 316 317 318 316 317 317 318 321 322 326 327 327 325 325 326 326 325 323 321 320 319 320 321 321 320 316 319 323 325 325 322 319 313 314 313 308 305 310 313 315 319 319 320 319 321 323 323 324 326
311 313 314 315 315 316 319 320 321 320 323 326 327 327 327 324 323 321 320 320 320 323 319 318 318 316 316 316 317 316 316 314 313 313 315 319 317 316 315 315 316 316 316 317 318 316 321 325 326 324 325 324 324 322 320 320 320 321 322 321 321 319 318 318 323 325 323 323 318 315 310 308 308 312 310 310 317 317 316 320 324 323 323 323 325
312 312 313 314 315 315 316 319 320 321 322 326 328 328 326 323 322 320 319 319 320 319 318 317 316 314 313 313 312 311 310 310 310 311 311 312 313 314 316 317 317 317 316 316 318 317 315 317 319 322 324 325 324 321 321 321 322 321 322 321 320 319 318 318 320 326 325 323 323 317 314 310 310 316 310 304 311 316 317 319 319 319 319 322 322
310 311 312 312 314 314 312 317 320 321 322 326 327 327 325 323 321 320 319 318 320 317 316 317 314 314 313 312 312 311 310 310 311 312 313 312 313 314 314 315 315 314 313 313 312 313 313 315 316 317 318 318 322 321 320 320 323 325 324 322 321 319 320 317 320 321 321 321 322 321 320 321 315 313 308 306 304 308 313 314 317 320 321 322 323
309 309 311 312 313 312 311 315 319 321 321 324 326 326 324 321 320 318 318 319 319 317 315 316 313 312 311 311 313 311 311 312 313 313 313 315 314 314 315 314 314 313 312 312 312 313 312 312 314 314 315 317 318 316 316 316 317 319 320 318 320 320 318 317 315 317 317 315 319 319 319 319 318 318 316 312 307 307 309 312 315 317 321 322 321
310 309 309 310 311 311 311 311 319 321 321 323 325 325 324 321 319 318 317 318 318 317 315 314 315 312 312 312 312 313 314 315 315 316 314 314 313 312 311 311 310 310 311 312 312 313 314 310 311 312 313 314 316 313 313 314 314 312 312 313 314 315 318 318 317 313 315 313 317 318 319 318 317 317 316 314 309 307 304 306 307 309 311 313 315
309 309 310 310 310 311 313 312 317 321 322 323 323 324 323 320 319 317 316 317 318 317 316 314 314 313 312 313 314 313 315 314 313 312 311 312 312 310 310 309 308 310 311 311 311 310 310 312 311 311 312 313 313 310 310 311 311 311 310 310 311 310 310 309 308 307 308 309 314 314 312 307 306 303 303 306 307 309 308 307 304 302 303 306 310
309 309 309 309 311 311 313 311 314 317 319 320 320 322 323 320 319 316 315 317 318 317 316 314 313 312 313 315 315 314 314 313 311 310 311 311 310 309 309 308 309 309 310 310 311 312 313 314 310 310 311 314 311 310 310 310 310 309 309 309 308 307 306 306 307 307 307 307 306 305 304 304 303 301 302 303 302 300 298 299 301 302 302 302 305
309 308 308 309 310 310 311 311 311 315 317 318 319 320 322 320 319 316 314 316 317 318 316 315 313 312 315 316 315 314 314 313 312 311 312 311 309 308 308 308 308 308 308 308 309 310 311 309 311 309 311 309 310 310 310 310 309 308 307 307 306 306 307 306 304 304 304 304 304 304 304 305 304 303 302 302 301 301 300 299 298 301 301 302 305
307 307 308 308 309 309 309 310 311 313 316 317 318 319 320 319 318 316 313 315 316 317 315 314 314 314 315 315 315 315 314 313 313 313 312 310 309 308 307 307 307 308 307 309 307 308 309 307 307 307 308 310 309 308 307 307 307 307 307 305 304 303 303 304 303 302 302 302 301 302 302 302 302 302 302 302 302 301 300 298 299 302 300 300 301
307 308 308 309 309 309 310 311 312 314 315 317 318 318 319 319 318 317 314 315 316 315 315 314 314 315 315 315 315 315 313 313 314 314 312 311 310 309 308 308 307 308 308 308 309 310 308 309 309 309 309 309 308 307 307 308 308 308 308 307 307 305 305 304 303 303 302 301 300 300 300 300 300 302 302 303 301 301 299 299 298 297 298 298 300
306 306 305 306 308 309 311 311 312 314 315 317 317 318 318 316 316 315 316 317 316 317 318 317 313 316 315 315 315 315 314 314 315 315 312 311 310 309 309 309 308 309 308 309 311 309 309 309 309 307 307 308 309 310 310 309 309 310 310 309 308 306 306 306 303 303 304 302 300 300 301 301 301 302 302 302 302 301 301 301 298 297 295 294 298
306 306 306 307 308 308 309 310 312 313 314 315 315 315 316 316 316 317 317 317 317 317 318 319 319 319 315 315 315 315 315 314 315 315 313 313 312 310 309 309 310 310 309 311 312 311 309 309 309 307 308 308 308 308 308 308 308 307 306 306 307 311 306 304 303 303 303 302 302 299 300 300 301 301 301 301 302 302 302 301 300 298 295 294 295
304 305 306 306 307 308 309 310 311 314 313 313 315 316 316 316 316 317 317 315 315 316 317 316 316 316 316 315 315 314 313 312 314 314 313 314 313 311 310 310 311 311 311 313 312 309 309 309 308 308 308 308 308 307 307 307 308 308 306 305 306 306 307 304 304 304 304 303 302 301 299 300 303 303 302 303 303 302 302 301 301 300 297 294 293
304 305 306 306 306 307 310 312 312 313 314 314 315 316 317 318 318 317 317 316 317 316 316 316 316 316 318 315 315 315 313 313 313 314 313 313 312 311 310 311 311 312 313 314 311 309 310 315 309 308 307 307 309 308 307 307 307 306 306 306 308 307 307 306 306 305 305 305 304 303 302 301 304 302 302 304 305 303 302 301 300 301 299 297 296
304 305 306 306 306 307 308 310 313 314 315 315 316 317 317 318 319 319 317 318 317 316 317 316 316 317 319 316 315 315 314 313 314 314 312 313 312 311 311 312 311 312 314 313 310 310 311 309 309 308 308 307 307 307 307 307 306 306 306 306 305 305 305 304 305 306 305 305 302 302 303 302 304 304 302 303 303 303 302 302 301 300 301 299 298
304 305 305 305 306 306 307 307 311 313 314 315 316 316 317 317 318 318 319 319 318 316 317 318 318 319 319 316 317 317 316 315 314 314 313 313 313 312 312 311 311 313 313 313 311 311 311 309 309 310 309 308 308 308 306 306 305 306 306 306 305 304 305 304 304 305 307 303 303 301 303 302 302 299 301 302 303 304 304 301 301 301 300 301 300
302 304 305 305 305 305 305 306 308 311 312 313 315 316 317 317 317 318 317 318 317 317 317 317 317 319 319 316 316 316 315 315 315 314 314 314 314 314 314 313 312 312 313 312 311 311 311 310 310 311 309 308 308 308 306 306 306 304 305 304 304 305 305 303 304 303 305 303 304 303 302 302 302 300 302 300 300 300 301 301 302 301 300 300 300
302 303 303 304 304 305 305 305 306 308 310 311 311 311 313 316 317 317 317 317 317 317 317 318 318 316 316 317 316 318 318 318 315 315 314 314 313 315 315 314 312 312 314 312 312 312 312 311 310 310 309 309 308 309 307 306 307 304 305 306 305 305 304 303 303 302 302 304 302 302 303 302 303 301 300 300 301 300 299 298 299 301 300 300 301
302 303 303 303 303 304 304 304 304 304 305 305 308 310 311 311 313 314 315 316 317 317 317 317 317 315 317 318 318 317 317 317 317 315 314 314 314 316 316 314 312 312 314 313 312 312 312 311 311 310 309 309 309 309 308 307 307 306 305 306 306 304 304 303 302 301 302 303 301 302 301 302 303 299 300 301 301 301 301 299 299 300 299 299 300
302 302 302 302 302 302 303 303 303 303 303 303 303 304 307 311 312 312 313 315 315 316 316 315 315 316 316 317 317 317 317 317 316 315 314 317 317 316 317 314 313 313 313 312 312 312 312 311 311 310 309 309 309 309 308 308 307 307 305 306 306 303 303 303 304 302 301 302 301 299 300 301 302 299 300 300 300 300 299 299 299 299 298 298 299
301 301 301 300 300 301 302 302 302 302 302 301 302 302 303 304 305 307 308 313 312 313 315 313 314 316 314 315 315 316 315 314 314 314 315 316 316 316 317 316 314 314 313 313 313 312 312 312 312 312 311 310 310 310 309 309 308 308 307 306 306 304 303 304 304 303 304 302 302 300 300 302 301 299 300 300 299 299 299 298 296 296 296 297 297
300 300 299 299 300 300 300 300 301 301 301 301 301 301 302 303 303 304 306 308 308 308 310 310 311 313 312 312 314 314 314 314 315 316 315 315 316 316 316 316 314 313 313 314 313 312 313 312 311 312 312 313 313 312 312 310 309 309 308 307 307 305 304 304 304 303 304 303 302 301 301 302 301 299 299 299 299 298 297 295 294 294 294 295 295
300 299 299 298 299 299 299 299 299 300 300 300 300 300 302 304 306 307 307 307 308 309 309 309 311 313 312 313 313 313 312 315 317 317 317 317 316 315 315 314 313 312 313 313 312 313 313 313 313 313 313 314 314 315 314 312 311 310 309 308 307 306 305 304 304 304 303 303 302 302 302 302 301 300 299 299 297 296 296 294 296 294 294 293 293
298 297 298 298 298 298 298 298 297 298 298 299 299 299 300 302 304 307 308 309 310 311 311 308 309 309 310 311 312 313 313 315 316 317 318 318 317 316 316 314 314 312 313 313 313 313 313 312 313 312 312 311 311 313 314 314 314 313 311 309 308 307 306 304 304 304 303 304 303 303 302 302 302 301 300 298 295 294 295 294 295 294 293 292 292
297 296 297 297 297 298 297 297 297 297 297 298 299 298 298 299 300 303 306 306 306 308 309 309 308 308 308 309 311 312 312 314 316 316 314 314 315 315 316 315 313 312 314 314 314 314 313 313 312 311 310 310 310 312 313 313 313 312 312 310 310 308 307 305 304 304 303 302 302 302 301 300 304 305 302 300 298 297 294 292 294 295 294 291 291
298 297 297 296 296 296 296 296 296 296 296 297 297 297 297 297 298 300 302 304 305 304 306 307 306 306 307 308 310 312 312 312 314 315 317 316 315 316 317 315 315 314 314 313 312 313 312 312 311 309 309 310 311 313 312 308 308 312 311 311 310 309 308 306 306 304 303 302 302 301 304 307 306 303 299 296 295 296 298 295 292 293 294 291 290
299 298 299 298 297 296 295 295 295 295 295 296 296 296 297 297 296 297 299 300 302 302 304 305 306 307 307 308 308 311 311 311 311 312 313 314 314 314 312 312 312 312 314 313 313 312 311 310 309 308 309 310 312 314 307 303 300 301 309 310 309 308 308 307 306 305 303 302 300 301 302 304 302 300 297 294 293 294 294 295 295 296 296 292 289
301 300 300 299 298 297 296 295 296 296 296 295 295 296 296 296 296 297 299 299 299 301 303 304 305 306 307 308 308 307 308 309 309 308 309 310 309 309 309 310 311 312 313 312 310 310 308 308 309 308 307 308 309 303 294 296 297 297 299 307 309 309 308 307 307 305 303 301 300 300 300 300 297 295 293 293 294 293 293 293 293 293 293 294 295
298 298 298 298 298 297 296 296 295 296 296 297 296 295 295 296 297 298 298 298 297 297 297 298 300 304 303 301 302 304 303 303 304 304 304 305 304 305 306 306 307 307 307 310 309 308 308 307 308 307 307 305 305 293 293 295 296 296 296 299 307 309 307 307 305 305 302 301 300 300 299 300 298 302 300 293 293 293 293 292 292 293 292 291 290
297 297 297 297 298 298 299 298 298 298 298 298 298 296 297 297 298 297 296 297 297 296 295 296 297 298 298 300 301 301 301 301 301 301 301 301 302 302 303 304 304 304 305 305 305 305 305 306 306 307 301 297 296 295 292 295 296 297 296 297 306 307 307 306 306 306 303 300 301 300 299 299 298 300 296 293 293 292 292 291 290 290 291 293 292
297 297 297 298 298 298 299 300 300 299 299 298 298 298 298 298 296 296 296 296 296 297 297 296 296 297 299 300 300 300 300 299 299 299 299 299 299 299 299 299 301 301 301 302 303 302 303 302 300 298 295 294 294 293 293 293 293 295 296 299 305 305 304 305 304 303 302 301 302 302 299 299 298 297 298 295 294 293 292 293 290 290 291 292 291
299 298 298 299 297 299 300 300 302 300 300 300 299 299 299 298 298 297 296 296 296 297 296 296 298 296 298 298 299 298 298 297 298 298 298 297 297 298 298 299 297 297 299 300 300 301 300 298 297 294 291 290 291 293 292 293 294 294 296 299 299 300 300 299 299 300 301 300 299 299 299 298 298 299 299 295 296 295 293 292 292 291 292 293 292
300 300 299 300 301 302 302 302 302 301 301 301 301 301 300 299 299 297 295 295 295 295 295 296 297 296 297 298 299 298 298 297 297 297 296 297 298 299 297 297 296 294 296 297 298 298 299 299 296 292 290 289 290 292 292 293 293 294 295 297 297 298 298 298 299 299 299 299 299 299 298 298 297 293 291 290 293 296 295 293 291 290 292 292 291
298 298 298 301 302 302 304 304 303 302 303 302 301 301 300 300 299 299 298 296 294 295 295 296 295 294 297 298 298 298 298 297 296 296 296 296 296 297 297 297 298 297 296 296 297 298 298 298 296 292 292 290 289 292 292 293 293 293 295 295 295 296 295 296 295 296 298 298 297 304 301 294 292 292 290 290 291 293 291 290 289 288 288 288 288
292 292 293 295 297 304 305 305 303 303 304 303 302 301 301 300 300 299 298 296 295 295 295 296 296 296 296 298 297 298 297 297 297 296 296 295 296 297 297 296 296 295 296 295 297 296 296 294 294 293 297 291 289 292 292 292 293 294 295 294 294 293 292 291 293 294 294 292 292 294 296 294 293 291 289 289 290 291 289 288 287 288 289 288 286
291 291 291 293 294 294 298 301 301 301 302 302 303 301 301 301 299 299 298 297 297 297 297 297 297 297 296 296 297 298 297 297 297 296 296 297 296 296 297 296 293 294 294 293 295 295 294 293 293 292 292 289 290 289 292 292 293 293 294 294 293 292 290 289 291 293 292 290 291 291 291 289 289 289 289 289 289 290 290 289 289 288 288 286 285
291 291 293 291 292 292 292 292 294 300 301 302 302 299 298 298 299 299 298 299 300 300 299 298 298 299 296 295 296 296 296 297 296 296 296 297 297 297 295 297 295 293 294 294 293 292 293 291 291 290 288 288 289 289 290 291 292 292 292 292 291 291 289 290 290 291 290 289 289 289 289 290 289 289 288 288 289 289 290 291 288 286 285 287 288
290 292 292 291 292 292 292 292 292 293 297 299 299 296 296 296 297 297 298 299 300 299 298 298 298 297 296 296 295 296 297 299 297 296 297 297 296 296 296 295 292 292 294 293 291 291 291 290 289 289 288 288 291 292 288 291 291 292 291 291 290 290 291 292 291 290 289 288 287 287 288 289 289 289 289 289 289 288 289 293 288 287 288 288 286
288 289 290 291 290 291 292 292 293 294 295 295 296 295 295 295 295 296 298 298 298 299 299 298 297 297 297 296 297 296 296 298 297 296 297 296 294 296 296 295 292 293 293 292 290 289 289 288 288 287 286 286 287 289 291 290 291 291 291 290 290 290 291 293 291 290 289 289 289 289 291 290 288 288 289 289 288 288 289 288 288 288 287 287 288
289 289 289 290 289 290 290 291 292 293 294 295 295 294 295 294 295 297 297 297 297 298 298 297 296 297 297 297 297 296 295 294 294 293 293 294 292 293 294 294 293 293 291 290 288 289 288 288 287 286 286 286 286 285 289 290 289 289 290 289 289 289 290 292 291 290 290 291 289 290 291 289 288 288 288 288 288 288 287 287 287 287 287 288 286
288 289 290 289 289 289 289 290 291 290 291 292 293 293 293 293 295 297 296 297 298 298 297 297 297 296 295 295 295 294 294 293 293 293 293 292 292 292 293 293 292 292 291 290 288 289 289 288 286 287 285 285 286 285 285 288 289 289 288 288 288 288 288 289 289 289 289 290 290 290 289 289 288 288 288 288 288 288 287 287 287 288 290 285 284
288 288 289 289 290 290 290 290 290 291 291 291 292 291 291 293 294 295 296 297 297 297 296 296 296 296 295 295 295 294 293 293 293 292 293 291 292 292 291 291 292 291 291 291 288 287 287 287 286 285 285 285 285 285 284 285 290 290 288 288 288 289 289 290 289 288 289 288 288 289 289 288 289 288 288 287 286 287 288 288 288 289 285 284 283
288 289 289 290 290 290 290 290 290 291 291 291 291 293 293 293 293 294 294 294 294 295 295 295 295 295 294 293 293 293 292 292 291 290 291 290 290 290 292 292 293 291 289 288 288 288 287 286 287 286 285 285 285 284 284 284 284 284 285 287 287 288 289 288 287 287 288 289 288 288 287 287 288 287 287 287 287 287 286 284 282 283 283 283 283
290 290 290 289 289 289 289 290 290 291 291 291 292 292 293 294 294 294 293 293 293 292 292 293 294 294 294 293 292 291 292 292 288 288 289 289 289 291 292 293 293 292 290 289 288 288 288 289 287 286 286 285 284 284 284 285 284 285 285 285 287 286 284 283 284 284 285 288 286 287 286 285 285 285 284 283 282 282 282 282 282 282 282 283 286
289 289 290 289 289 290 290 290 291 291 291 291 292 292 293 293 293 293 293 293 293 291 291 290 291 292 292 291 293 292 292 289 285 284 283 283 284 287 291 291 291 293 295 293 291 290 290 289 289 287 286 285 283 285 286 287 287 288 286 286 285 285 285 285 287 287 287 285 284 284 283 283 281 281 280 281 280 281 281 281 282 283 282 282 283
287 288 288 288 289 289 289 289 290 291 291 291 291 292 292 292 292 292 293 293 293 293 291 291 290 290 292 291 290 290 290 288 287 285 285 285 286 287 286 288 288 290 292 293 292 291 291 289 288 286 287 286 285 286 287 287 288 288 288 287 287 287 287 287 287 287 285 282 282 282 280 279 279 279 279 279 279 279 280 281 281 283 282 282 283
286 285 286 286 286 288 288 288 289 290 291 291 290 291 291 291 291 292 292 292 292 292 292 293 291 291 290 291 289 288 288 288 288 287 287 287 285 287 287 288 288 289 291 291 291 290 290 290 290 286 285 288 287 287 287 287 287 287 287 287 287 287 287 287 287 284 284 283 283 281 279 278 277 278 279 279 279 279 280 280 281 281 282 283 283
Wind_Speed
11 14 14 14 13 11 10 9 8 6 8 10 9 9 10 9 9 7 5 5 5 5 4 4 4 4 5 6 6 4 6 5 7 6 6 6 7 4 1 2 7 6 6 5 5 5 4 3 2 3 4 4 3 3 3 4 3 3 3 2 3 2 1 1 1 4 4 1 1 2 2 1 1 1 1 1 2 1 2 3 2 3 2 2 4
9 8 11 13 12 12 10 9 8 9 8 10 11 10 9 9 9 7 5 5 5 5 5 4 3 6 7 7 6 5 6 7 6 6 6 6 6 5 3 3 3 5 4 4 5 6 6 6 4 3 3 4 3 3 3 4 4 3 2 2 2 1 1 0 0 3 1 2 3 0 2 1 1 1 1 0 0 2 2 2 2 3 3 2 4
8 9 11 14 14 13 11 10 9 12 12 12 11 10 10 9 9 8 7 6 6 5 4 3 2 4 6 4 8 4 2 4 6 4 5 7 5 4 5 4 3 3 3 4 5 4 5 6 5 5 4 5 5 3 3 3 4 4 3 4 3 4 2 2 5 1 2 1 1 2 1 0 2 2 1 0 0 1 2 2 2 2 4 2 1
12 13 14 13 12 12 11 11 12 10 11 11 12 13 10 9 9 8 8 7 6 4 3 2 5 6 6 7 5 6 5 4 5 4 5 7 6 5 5 5 5 4 3 3 3 4 5 5 3 3 4 4 5 5 3 3 3 3 2 2 3 5 2 1 4 0 2 4 1 0 1 2 2 2 2 2 1 1 0 1 2 3 4 4 2
15 12 10 11 10 11 16 14 11 11 11 12 13 12 9 12 11 10 9 8 5 4 5 7 9 9 8 8 8 8 6 6 5 5 4 4 4 6 4 4 5 4 3 4 4 4 3 4 4 3 3 3 3 4 4 2 2 2 3 4 4 4 3 1 1 2 3 2 1 2 2 1 1 1 3 3 3 2 1 1 2 2 4 4 4
20 19 16 15 15 12 9 12 12 11 12 12 13 13 12 11 11 10 7 6 5 5 8 8 9 10 9 9 8 7 6 4 4 4 4 4 4 2 4 4 5 5 5 5 4 5 5 3 3 3 3 3 3 2 2 1 0 1 3 3 3 2 4 2 3 4 2 4 1 1 0 1 1 0 2 2 3 0 3 3 3 4 3 4 4
5 6 7 11 12 12 10 12 12 11 9 8 10 11 12 12 11 10 8 6 6 6 8 9 9 9 9 9 9 8 8 1 2 4 5 3 4 5 4 4 5 6 5 5 5 6 6 5 5 5 4 3 3 4 3 3 3 0 1 1 2 4 4 3 5 3 5 1 1 3 4 4 3 3 0 0 4 4 2 2 4 4 4 4 5
14 14 14 13 13 12 13 11 11 11 7 7 9 10 12 12 11 9 8 7 7 8 7 10 10 8 8 7 7 8 7 7 5 4 4 4 6 4 4 4 5 5 6 6 6 6 6 6 6 6 6 5 5 4 4 3 6 4 0 1 3 3 4 5 3 2 4 1 3 3 4 4 5 5 3 1 1 2 6 4 1 4 3 3 3
15 12 11 9 10 9 6 7 7 9 8 10 11 11 11 11 11 10 10 9 8 9 9 10 11 10 10 8 6 5 8 7 5 5 5 5 5 4 5 4 5 5 5 6 6 6 6 6 6 6 6 5 5 5 4 5 6 5 4 6 6 5 4 3 4 2 4 3 3 4 3 4 4 4 2 2 1 0 3 2 4 5 4 4 4
3 6 8 8 7 6 6 5 5 10 9 7 6 8 9 9 11 11 10 10 10 9 9 9 10 9 9 8 9 7 7 6 6 6 5 4 6 5 4 4 4 5 5 5 6 6 6 7 6 6 5 5 6 6 6 6 6 6 5 6 6 8 5 6 6 5 5 3 3 3 3 2 4 4 4 4 2 1 1 3 3 4 6 6 5
4 5 4 3 1 0 1 4 4 3 5 6 6 8 9 10 11 12 11 10 10 10 9 10 9 9 9 9 10 10 9 8 7 6 5 4 6 4 5 4 4 5 5 5 5 5 5 5 6 5 5 5 6 6 5 5 5 6 5 6 6 7 6 6 6 5 6 6 6 6 5 5 3 2 1 2 2 1 2 3 3 3 2 4 5
6 5 5 5 4 4 5 4 4 5 5 7 7 7 10 11 11 12 9 9 9 9 9 9 8 8 9 10 10 10 10 8 9 9 7 7 6 6 4 5 4 4 4 5 4 5 6 5 5 5 5 5 5 5 5 5 5 5 6 6 5 5 5 7 6 7 6 6 5 5 5 5 4 3 2 2 3 1 1 1 2 4 2 2 4
7 6 6 6 6 6 6 6 5 6 8 9 10 10 9 10 12 13 10 9 10 9 9 9 8 8 9 10 9 9 9 9 9 9 7 7 7 6 6 7 5 5 4 5 4 5 6 6 5 6 5 4 5 5 5 5 5 6 6 5 5 6 5 6 7 4 5 6 5 4 5 5 4 1 2 3 2 3 3 3 2 0 1 3 4
7 6 6 5 5 6 6 7 8 7 8 10 11 9 8 9 10 13 11 7 7 7 8 9 8 8 9 10 9 9 8 8 9 9 7 7 8 8 8 8 7 7 6 6 5 4 5 5 5 5 5 4 5 5 5 5 5 6 5 6 5 4 5 6 6 5 5 4 3 6 5 5 3 3 4 4 3 3 3 2 2 2 0 2 2
5 5 4 3 1 2 6 8 9 9 10 11 10 9 5 3 4 5 11 12 12 12 12 7 4 3 8 9 10 8 9 8 9 9 8 8 7 8 8 7 8 7 7 5 4 5 5 5 5 5 5 5 5 5 5 5 5 5 5 5 5 4 5 6 5 6 6 5 5 5 4 4 3 3 4 3 3 3 2 1 3 5 5 3 5
5 6 4 3 2 1 1 4 5 7 9 9 6 2 6 5 7 11 12 12 13 13 10 2 8 0 4 9 11 9 8 8 8 7 8 9 9 9 9 8 8 8 6 6 5 6 5 5 5 5 5 5 5 6 5 6 5 6 4 4 4 2 6 5 4 5 5 5 4 3 5 3 2 3 3 3 3 3 3 2 3 4 3 5 4
5 5 4 3 4 4 1 1 3 5 3 3 8 10 11 11 8 7 7 6 10 13 15 15 13 3 6 10 9 7 7 10 10 10 10 8 9 8 8 8 8 8 7 6 7 5 5 5 5 4 4 5 5 5 5 5 5 5 5 4 4 3 5 4 4 5 4 4 4 4 4 3 2 1 2 2 2 2 3 2 2 3 3 2 3
6 5 4 4 2 3 4 5 5 6 9 11 10 9 10 9 11 10 8 10 9 9 7 6 3 8 8 10 10 8 8 9 9 9 8 8 7 5 4 6 8 9 8 7 7 7 6 6 5 4 4 4 5 4 5 5 5 5 5 5 4 4 4 3 3 4 4 4 4 3 2 3 0 2 1 1 1 2 2 2 2 1 3 3 0
6 6 6 7 7 6 5 5 6 8 9 11 12 11 11 11 13 11 10 10 13 12 13 12 14 12 8 10 9 6 4 7 9 8 6 6 8 7 7 8 6 7 9 8 8 8 7 6 6 5 4 4 3 5 4 4 5 5 4 4 4 4 4 4 2 3 2 4 4 4 3 2 1 1 2 2 2 2 3 1 2 2 3 2 1
6 7 7 7 8 7 7 5 6 6 8 8 9 10 13 8 11 13 14 14 11 6 1 1 3 7 9 7 11 11 9 8 10 10 9 8 7 7 7 7 9 7 8 9 9 9 8 8 7 7 6 5 4 4 4 4 4 4 4 5 4 4 4 4 3 2 3 3 3 3 3 3 2 2 3 2 2 2 0 1 2 3 1 2 2
4 7 7 8 7 7 6 5 5 4 3 3 7 10 9 9 11 12 13 9 11 8 8 11 14 14 12 11 12 11 11 9 9 11 11 10 8 8 9 10 7 8 8 9 9 8 8 8 8 7 7 5 5 4 4 4 5 4 3 4 4 4 4 3 4 2 2 4 3 3 2 1 0 3 1 1 2 2 3 1 2 2 3 2 2
5 6 5 6 6 6 6 6 6 6 4 3 1 2 5 10 10 7 6 9 13 13 12 14 13 11 11 12 10 7 8 7 8 12 11 10 9 10 10 7 10 9 9 9 9 8 8 8 7 7 6 5 5 5 5 4 5 4 4 3 5 4 4 4 2 4 3 3 3 3 3 2 1 1 1 1 2 4 3 3 4 2 2 3 2
5 6 5 4 4 6 7 8 7 7 5 3 3 2 3 4 3 4 8 11 12 14 13 12 11 10 11 10 10 8 8 9 7 5 7 5 6 9 9 11 10 9 8 9 8 8 8 8 7 7 6 5 5 5 5 5 5 5 5 4 4 5 5 5 4 4 4 3 3 3 3 3 1 1 0 0 1 3 1 2 3 3 4 3 2
6 6 5 4 3 4 7 8 8 7 6 4 3 3 3 2 2 4 6 7 10 13 13 12 8 7 8 8 9 8 7 7 8 4 5 7 6 3 5 10 10 8 8 5 6 6 5 6 6 5 5 5 5 5 4 5 6 6 6 6 5 5 5 5 6 5 4 4 5 4 3 3 3 3 2 1 3 3 3 3 3 2 3 3 3
6 5 5 4 5 5 5 6 7 6 5 5 5 5 5 4 4 3 2 2 1 4 7 8 6 8 7 9 7 6 6 2 5 6 4 4 5 10 5 2 5 8 6 7 4 5 6 6 7 6 5 5 6 5 6 6 6 6 6 6 6 5 6 6 6 6 6 6 5 5 5 4 4 3 1 0 1 3 3 4 4 3 4 3 3
6 5 5 5 3 2 4 5 6 6 6 5 5 5 5 6 6 5 8 9 8 6 3 1 2 5 4 4 4 3 6 10 12 11 13 12 14 7 4 7 7 4 3 5 8 5 7 6 6 6 6 7 7 7 7 7 7 7 6 6 5 6 6 6 6 6 6 6 6 6 5 6 5 5 4 1 3 3 3 4 3 3 2 3 4
6 5 4 4 4 4 3 4 4 5 5 5 4 5 6 6 7 7 8 9 7 7 7 9 7 9 10 11 10 7 4 5 10 9 9 6 5 4 8 3 8 4 6 9 3 3 6 7 6 7 7 7 7 6 5 3 3 3 3 4 5 6 6 6 6 6 6 6 6 6 6 6 7 6 5 5 4 3 4 3 3 3 2 3 3
4 4 5 5 5 4 4 3 4 5 5 6 5 4 4 4 5 3 5 7 6 7 8 8 8 8 8 9 10 10 9 6 7 10 8 9 8 5 3 1 7 2 1 5 2 8 7 3 7 7 7 7 5 4 4 4 4 5 5 5 6 6 6 6 6 6 6 7 7 7 6 7 7 6 6 6 6 6 4 4 2 3 3 3 3
4 4 3 4 4 4 4 4 3 4 6 5 5 5 4 4 3 2 4 5 3 5 6 8 8 7 7 7 6 6 9 11 9 9 5 1 7 7 7 6 5 11 10 8 9 10 9 5 4 5 4 2 3 4 5 5 5 6 6 7 7 7 8 8 7 6 6 6 6 6 6 6 7 9 11 10 8 8 6 4 2 3 3 2 1
6 6 5 4 2 1 1 4 4 4 4 5 5 5 4 4 4 3 4 1 2 5 6 7 9 5 4 6 7 6 6 7 5 11 13 13 11 11 12 13 14 11 8 8 8 8 8 9 7 3 1 2 3 3 4 8 8 6 6 6 6 8 8 8 8 7 6 6 7 6 7 12 12 13 12 12 12 10 8 7 6 5 4 2 1
4 5 7 6 6 5 4 4 3 3 2 4 4 4 4 5 4 3 2 2 6 5 6 7 6 4 4 3 2 5 7 9 10 10 9 9 8 6 4 4 3 4 6 7 7 7 7 6 4 2 1 1 2 3 6 7 8 9 5 5 6 7 8 9 9 9 9 8 6 6 6 9 11 10 10 13 12 11 10 10 10 9 7 5 2
7 7 7 7 7 7 6 5 4 3 3 3 4 4 5 4 4 4 2 2 4 4 5 6 5 5 5 5 4 4 6 6 6 5 6 6 5 4 5 5 4 5 5 5 7 6 4 2 1 1 1 1 1 5 8 8 6 7 7 7 6 7 8 9 9 8 6 6 7 6 6 6 6 8 7 7 8 10 11 11 11 10 9 8 6
11 11 11 10 8 7 7 7 5 4 3 2 2 4 4 3 3 2 2 5 4 3 4 3 3 4 3 3 4 6 7 7 7 6 5 4 4 3 1 1 2 1 2 0 1 1 1 1 1 1 0 1 2 6 7 6 6 7 8 8 7 7 8 9 6 6 8 9 8 7 6 4 3 8 8 6 6 5 7 8 9 9 7 8 8
10 10 10 10 9 9 8 7 6 7 6 4 4 2 2 3 2 2 4 3 4 4 4 3 4 5 5 5 6 6 6 6 5 5 5 5 5 5 3 1 1 2 1 0 0 1 2 1 1 1 1 3 2 5 4 4 6 8 9 6 5 7 7 5 8 10 7 5 7 8 8 7 4 4 4 5 4 4 4 4 4 4 4 4 5
9 10 10 10 11 10 10 11 10 10 9 9 9 7 6 7 6 3 3 1 2 2 2 2 3 4 5 5 5 6 5 5 5 5 5 5 4 4 4 3 4 4 4 5 4 2 1 2 3 4 4 4 3 5 6 8 8 6 4 2 1 1 2 1 1 2 3 4 4 4 3 3 3 4 4 5 5 4 4 3 3 3 4 4 4
5 8 8 9 11 10 8 9 7 9 10 10 11 9 9 6 5 5 4 2 1 1 2 1 0 3 5 4 5 5 5 5 5 4 5 4 4 3 3 2 3 3 2 2 2 5 5 4 4 5 5 4 1 3 7 9 10 9 9 6 5 5 5 5 4 4 4 4 4 5 5 4 4 3 3 8 7 3 4 4 4 3 1 1 1
5 5 6 4 3 4 6 6 8 9 9 9 9 9 8 7 6 6 5 5 5 4 4 2 2 1 4 4 5 5 5 5 4 4 3 2 2 1 1 1 2 3 3 2 1 2 5 6 5 4 6 4 2 3 7 9 9 10 8 6 6 6 6 6 4 4 4 4 2 2 5 4 3 3 4 7 2 5 1 1 1 1 1 2 4
7 8 8 8 4 3 6 5 6 9 9 9 9 9 9 8 7 5 6 5 5 5 4 1 3 4 2 4 4 5 5 4 4 4 3 2 1 0 1 1 1 1 3 3 1 2 2 5 6 5 5 6 3 1 6 10 10 9 8 6 5 7 5 5 5 5 5 6 6 9 6 6 6 4 8 11 10 8 5 4 3 3 2 2 3
6 6 8 8 8 5 3 5 6 6 7 6 9 12 9 8 7 6 4 4 4 3 3 1 3 2 1 2 2 5 5 5 5 4 4 3 3 3 1 1 2 2 1 1 2 2 2 2 3 5 7 7 5 3 5 9 10 9 7 5 6 6 6 4 5 5 5 5 5 6 8 8 8 8 11 11 11 8 6 4 3 2 1 2 3
6 7 6 6 4 4 2 2 2 1 2 7 7 9 11 11 9 7 5 6 6 5 2 1 1 1 2 1 1 1 3 5 5 4 3 4 4 2 2 1 2 3 3 3 3 3 3 3 2 3 3 4 6 3 3 8 10 10 9 6 4 7 5 4 4 4 5 5 5 5 7 11 12 12 10 10 8 8 5 3 3 2 1 3 1
9 9 8 7 8 7 5 4 3 4 4 5 5 6 6 7 8 8 8 6 5 7 10 5 2 0 1 2 1 2 2 1 2 2 2 1 3 4 3 2 1 3 4 4 4 4 4 4 4 3 3 2 2 4 3 8 9 10 10 10 5 6 5 5 4 4 5 5 5 4 3 7 10 9 8 8 7 6 5 3 2 2 2 2 1
6 8 8 8 8 7 8 8 5 4 3 4 4 4 4 4 5 7 8 7 8 7 7 5 2 1 1 1 1 1 1 2 1 2 1 1 2 1 2 3 3 4 5 5 4 4 4 4 4 4 3 3 3 3 4 5 8 9 10 10 8 4 5 7 6 5 4 4 4 4 3 4 7 7 7 6 5 5 4 2 2 4 3 2 2
5 5 5 6 8 8 6 7 8 8 7 4 4 5 6 5 6 9 9 6 7 7 6 5 3 3 3 2 2 3 2 2 1 1 1 1 1 1 1 1 3 4 5 5 4 4 4 4 4 3 3 3 3 2 4 4 7 9 9 9 9 6 4 5 6 5 4 5 3 4 4 5 5 5 4 4 4 3 2 1 2 2 4 4 2
9 8 6 4 5 5 7 6 6 6 6 8 8 7 6 7 9 9 8 8 7 7 7 7 5 5 4 4 4 2 1 1 2 2 1 1 2 2 2 1 2 4 6 5 4 5 5 4 4 3 2 2 1 2 2 4 5 9 9 9 9 8 8 6 6 5 3 4 3 2 1 3 2 2 1 2 3 2 2 3 4 5 4 2 0
7 9 8 6 6 6 6 7 7 5 4 4 4 5 7 8 9 8 9 9 8 6 5 5 5 4 5 5 4 4 5 4 4 3 2 2 1 1 0 0 2 3 5 5 4 5 6 6 4 4 3 2 1 1 2 3 5 7 9 9 9 10 9 9 6 4 4 3 2 1 1 1 4 4 5 5 3 3 4 5 4 3 2 1 1
6 6 6 7 9 9 10 10 8 5 6 5 4 3 4 6 6 4 4 5 6 6 8 8 8 6 7 6 5 5 4 4 2 3 2 2 0 0 1 2 3 4 4 5 6 5 5 5 5 5 4 4 2 2 2 2 2 5 6 8 9 9 9 9 8 5 7 8 6 4 4 4 1 0 1 1 1 1 2 4 4 3 1 1 2
7 6 6 8 8 10 11 10 11 7 5 5 5 5 5 5 5 5 4 3 3 3 6 6 6 7 6 4 5 5 5 4 4 4 3 3 4 4 3 4 5 5 3 3 5 5 4 4 6 4 4 3 3 3 3 2 2 4 3 4 5 5 7 7 5 3 4 4 5 4 4 6 6 8 7 5 5 4 4 3 3 3 3 3 3
7 7 7 7 7 8 10 10 10 9 6 6 6 6 7 6 5 5 4 3 3 3 3 4 5 4 4 3 4 5 5 4 3 4 5 4 2 4 6 6 7 7 8 7 7 6 7 7 6 6 4 4 4 3 4 4 3 4 3 4 4 4 4 3 3 3 3 3 4 5 7 6 6 7 6 6 5 4 3 3 4 4 4 3 3
10 9 7 8 8 9 10 11 12 10 8 8 8 8 7 7 6 5 4 4 5 4 3 3 3 3 5 4 5 5 5 4 5 4 5 2 2 2 4 5 4 6 11 11 9 8 8 8 8 9 8 5 4 5 5 3 4 6 7 6 4 4 3 3 2 2 3 4 5 6 6 6 6 4 5 4 4 4 5 3 3 4 3 3 4
11 10 10 11 11 10 11 13 13 11 9 9 9 9 7 5 4 4 4 4 5 5 4 4 4 4 4 4 3 4 4 6 6 6 6 5 6 8 4 1 3 3 4 5 9 9 10 8 7 4 4 9 9 6 6 7 8 9 9 9 8 7 5 4 6 7 5 6 4 5 4 4 4 4 5 4 4 4 4 5 5 5 4 4 5
11 12 12 12 13 13 12 13 13 11 11 10 8 7 6 5 4 4 4 4 4 5 5 6 5 4 4 4 3 3 3 5 6 7 6 7 5 6 11 11 6 2 7 9 6 5 11 10 11 6 4 8 9 10 10 10 11 12 12 11 9 8 7 6 3 4 6 5 5 5 3 4 3 3 4 5 4 4 5 6 6 6 5 5 5
Wind_Direction
168 158 157 158 160 160 163 162 156 157 142 140 137 138 137 138 131 141 150 139 137 145 140 142 118 104 88 103 112 105 96 80 70 73 94 122 138 172 182 139 138 157 188 183 157 151 130 115 141 142 120 113 116 132 143 122 121 131 137 102 122 108 30 44 158 125 128 69 28 67 23 21 79 82 85 82 104 102 68 14 333 335 321 311 291
148 157 162 157 164 163 160 163 157 152 160 149 148 150 144 141 143 153 154 149 157 168 174 154 157 147 135 137 127 122 113 96 89 82 86 73 87 104 111 95 116 141 143 142 142 137 143 158 162 139 100 101 106 109 112 113 115 112 114 68 31 90 80 78 355 86 337 189 130 14 346 308 179 95 192 246 120 85 57 27 343 332 319 340 321
168 165 165 166 170 166 165 169 170 166 167 161 155 145 146 147 149 157 164 160 177 182 165 165 117 117 121 144 131 95 57 113 114 117 96 88 74 82 92 94 88 84 116 130 133 141 141 148 159 148 137 138 124 122 120 124 134 134 133 134 104 30 2 60 314 46 152 88 229 91 319 26 323 355 347 350 55 23 17 7 343 319 310 306 297
167 171 173 174 179 173 171 175 176 173 169 161 155 154 154 154 154 160 169 169 178 195 147 94 104 102 103 116 92 101 127 100 87 72 78 74 65 74 65 85 86 87 108 115 125 151 157 158 144 137 151 154 146 152 165 165 151 138 127 131 119 137 241 191 210 246 202 123 339 255 237 126 356 324 319 298 73 181 121 341 318 311 307 313 324
167 173 176 171 173 184 181 179 170 173 176 167 161 159 163 160 160 163 168 174 176 157 127 120 107 95 96 87 93 84 61 66 69 51 59 94 83 65 75 87 92 87 67 63 89 120 138 140 144 142 143 132 136 151 178 184 189 173 150 148 159 151 178 110 67 251 242 71 149 87 12 24 231 284 23 300 344 25 358 360 288 283 294 305 316
170 175 177 179 180 187 179 171 175 177 177 171 164 163 157 161 159 161 162 160 154 153 143 134 129 127 120 114 110 104 103 100 112 122 93 90 113 120 62 68 70 70 71 79 81 94 93 101 103 119 132 134 136 125 101 82 75 218 194 178 180 143 130 121 145 209 170 48 342 138 170 174 161 271 79 314 329 155 292 302 268 266 274 284 291
165 156 166 180 188 181 181 178 177 177 176 160 160 160 159 158 161 162 156 153 154 154 152 133 129 131 133 136 138 140 135 160 130 123 121 117 99 86 77 55 68 74 57 66 70 74 82 84 94 95 99 109 127 129 151 176 190 190 87 177 182 137 155 139 172 142 91 37 325 46 32 30 93 99 151 171 351 321 338 310 311 333 327 322 314
174 178 188 188 186 182 180 178 174 177 157 159 161 161 161 161 160 158 146 150 161 156 157 141 137 136 132 134 140 138 142 148 150 147 135 131 100 93 81 69 66 75 74 64 70 79 89 84 81 79 83 83 92 98 107 108 92 89 63 69 88 99 135 135 136 134 121 57 356 60 33 350 40 56 88 139 166 321 320 326 329 323 316 283 286
176 175 181 182 189 197 182 175 175 156 162 172 171 167 165 161 159 156 151 152 162 164 155 147 142 146 143 140 135 145 136 143 144 135 125 118 110 95 92 84 72 64 73 77 70 79 80 86 79 75 76 77 84 84 77 76 83 93 84 71 79 67 74 105 102 78 99 140 115 69 79 50 45 54 58 67 108 53 299 341 323 323 352 331 323
150 162 179 191 195 194 189 158 160 177 173 168 162 160 162 160 161 159 157 159 163 168 156 151 144 140 139 146 140 140 132 133 130 135 134 131 121 119 115 100 90 75 71 77 76 77 89 89 89 86 85 82 79 81 80 73 72 72 74 87 89 83 65 79 97 103 98 95 101 131 100 48 34 24 24 33 32 56 232 303 312 342 347 304 311
142 152 164 167 135 123 87 157 188 149 151 162 166 169 166 166 165 167 168 162 161 164 157 153 148 148 146 146 139 146 147 141 133 134 135 128 134 136 122 123 110 108 92 83 96 97 90 91 95 94 88 87 82 76 77 87 81 83 79 79 79 95 96 94 86 81 87 80 74 87 98 102 128 107 31 42 101 45 21 336 309 317 261 310 307
139 122 134 147 155 156 145 152 164 185 169 180 178 175 175 172 169 169 170 161 163 165 159 155 150 149 142 141 146 153 151 149 149 153 158 154 150 143 136 115 116 111 102 99 91 96 98 92 92 87 87 85 87 97 93 90 88 80 70 75 76 72 81 81 83 83 82 82 78 90 98 100 85 115 168 147 125 157 139 255 288 312 328 272 282
126 122 133 159 172 168 170 174 163 180 194 194 190 185 180 175 174 170 172 165 168 166 165 158 149 149 145 145 150 155 154 155 154 156 165 156 158 145 143 141 136 118 127 115 122 111 111 105 100 102 99 100 104 97 95 90 85 82 84 75 72 69 73 88 85 90 97 98 97 56 73 65 66 52 97 117 71 108 105 48 295 21 276 309 302
123 123 123 145 164 181 183 177 187 190 198 202 201 189 178 180 180 175 173 165 156 159 165 157 158 149 142 146 152 158 162 160 161 163 170 167 165 160 159 156 155 154 153 149 155 126 110 122 115 112 117 118 111 108 103 101 95 93 88 85 82 94 84 84 93 90 78 82 96 81 68 78 65 60 78 74 83 60 37 32 326 329 36 319 297
91 80 80 85 117 187 195 193 192 196 200 207 206 197 165 92 60 59 64 54 46 30 12 29 12 136 147 150 158 170 166 168 168 169 168 172 177 165 166 158 152 163 159 166 144 128 135 125 126 123 121 115 113 104 102 95 95 91 92 96 93 94 90 87 83 86 84 87 78 98 90 72 83 81 85 84 101 105 116 139 75 18 348 355 347
84 91 64 17 12 11 200 228 226 212 203 207 203 106 84 95 116 126 126 123 116 105 98 15 318 121 158 164 172 174 172 167 167 173 176 179 180 172 170 166 161 159 163 146 159 143 143 135 127 129 125 112 115 123 118 113 111 104 94 94 89 98 101 93 101 92 89 96 106 94 79 82 91 94 101 121 112 135 122 117 100 90 71 350 339
93 91 74 30 10 1 3 131 206 214 213 87 80 93 93 84 68 49 47 75 111 122 139 165 214 246 214 183 171 177 179 171 175 182 182 186 179 181 170 172 159 157 160 155 155 151 147 141 135 136 122 115 112 122 125 125 121 116 118 110 112 105 104 118 110 98 106 106 98 101 115 110 96 77 48 44 47 74 89 104 102 124 140 98 351
131 123 121 121 105 63 40 38 70 96 115 121 121 116 118 110 105 98 93 86 64 72 111 143 220 260 234 199 177 179 191 180 174 184 186 178 177 175 168 163 171 167 156 160 153 152 153 146 142 148 142 123 125 127 128 132 121 116 130 138 149 125 104 91 109 109 110 104 105 90 97 87 346 63 27 342 36 33 33 78 99 118 120 121 167
121 101 87 70 60 55 58 68 77 104 116 118 121 115 105 124 117 111 121 138 146 156 173 171 205 229 222 203 165 176 210 200 175 176 174 184 179 175 178 184 173 166 153 154 154 155 154 154 149 153 147 125 112 123 129 130 127 122 126 129 141 128 124 131 161 128 143 116 110 108 123 118 137 95 20 355 349 12 347 339 78 108 82 122 146
92 90 81 73 62 54 53 54 80 119 131 135 133 141 150 161 146 162 166 166 161 130 89 47 301 268 237 210 172 181 191 207 180 172 175 185 188 179 180 172 180 175 167 159 160 160 160 155 160 156 157 145 133 132 132 132 124 133 144 138 165 133 131 147 175 172 147 124 120 116 146 152 170 104 45 24 11 336 28 347 3 14 44 121 127
101 94 89 84 77 64 52 54 66 86 100 130 154 158 156 159 172 176 169 125 117 148 176 180 206 230 217 194 182 186 187 200 189 178 175 187 187 182 181 183 168 177 167 166 164 166 162 161 159 162 160 163 149 150 142 143 140 144 161 165 153 143 144 169 158 179 159 142 150 156 185 202 139 87 96 53 35 6 8 17 12 24 345 360 35
90 76 70 87 88 82 73 63 66 75 81 97 99 112 158 171 180 176 131 148 158 178 190 201 204 209 198 185 171 150 166 187 208 181 180 187 186 183 184 170 175 181 175 170 168 167 163 159 161 163 165 164 162 165 155 147 148 156 176 183 159 155 159 174 171 181 197 185 156 174 220 240 218 130 87 35 31 29 10 19 15 40 15 1 12
77 70 66 58 77 93 90 82 75 78 83 87 109 153 200 217 167 138 162 169 176 186 200 205 201 207 189 163 148 159 171 180 178 193 176 154 174 187 178 176 178 177 182 169 170 166 164 162 160 165 163 167 171 173 170 164 165 168 176 192 180 170 172 180 186 210 206 184 158 180 211 212 160 158 293 69 60 47 60 69 39 42 61 35 20
49 55 53 44 50 80 82 80 76 71 72 70 75 106 141 192 157 157 175 181 182 191 193 195 192 188 172 149 156 158 160 177 186 117 102 140 128 261 205 180 173 169 169 173 153 149 146 151 152 153 161 169 176 182 180 184 185 178 180 188 189 180 183 187 192 197 196 183 188 183 218 195 183 181 247 357 44 68 92 109 84 59 80 44 40
78 68 57 39 35 44 68 85 87 83 71 68 73 82 85 80 89 112 131 169 188 184 202 188 175 173 166 155 161 161 157 137 32 43 143 177 200 165 181 148 176 163 157 142 142 137 139 144 150 158 162 170 187 186 190 200 198 194 191 189 188 190 191 195 196 196 191 188 190 192 193 181 170 188 254 345 52 62 60 64 57 31 44 28 33
113 106 83 82 60 35 52 69 79 78 82 74 76 81 88 90 89 100 98 95 91 68 20 354 149 137 119 108 111 104 107 86 79 57 9 12 10 1 99 104 12 352 108 136 144 149 148 152 152 159 164 175 181 189 195 202 205 198 197 195 191 191 200 198 199 197 194 193 190 200 184 173 172 184 209 160 109 109 92 78 71 52 43 38 35
137 133 125 104 81 77 60 56 74 82 74 65 59 64 77 86 84 89 98 99 93 90 89 86 85 96 93 88 84 67 43 88 108 105 101 72 51 29 341 60 86 28 8 13 354 155 163 153 166 160 171 175 182 187 193 208 224 208 199 204 204 205 206 206 204 198 196 193 193 195 187 176 181 190 174 158 141 123 115 107 106 101 60 58 34
116 115 128 132 134 118 93 76 75 76 71 67 51 44 58 75 79 67 90 72 51 65 60 64 78 79 80 90 95 98 89 74 86 102 127 137 145 149 194 281 109 136 220 122 89 328 312 219 182 184 190 188 176 165 158 164 184 200 199 212 219 213 211 214 212 206 195 194 193 192 186 182 185 181 167 168 151 146 140 112 145 99 66 49 31
108 120 122 126 132 135 124 104 85 78 84 78 68 54 42 40 44 24 41 80 121 118 107 84 30 30 57 42 39 78 99 109 108 88 65 88 139 163 173 150 168 199 178 180 180 192 218 253 250 224 233 251 213 199 188 196 200 210 206 212 210 215 216 213 212 210 201 194 191 185 177 176 176 171 169 163 163 157 144 137 163 114 97 93 45
77 75 61 30 21 15 80 95 74 75 79 78 74 67 58 54 35 42 84 79 87 95 121 127 136 165 157 168 149 126 106 92 124 155 174 188 193 188 176 172 181 192 184 181 181 180 195 210 216 236 238 247 256 256 223 212 214 213 217 217 213 213 214 213 208 204 202 194 184 178 176 168 165 160 158 155 155 154 151 148 160 148 138 125 135
49 68 72 77 68 39 21 39 53 61 67 80 83 77 60 53 50 55 65 104 98 81 70 102 123 137 153 171 140 140 143 169 185 176 179 186 182 184 167 193 207 147 157 176 177 187 203 202 196 207 250 259 282 293 307 294 275 260 246 231 219 220 212 213 210 196 191 188 190 182 169 165 157 154 155 157 158 158 154 152 156 159 158 148 154
25 25 44 53 64 65 51 26 8 5 12 49 65 61 69 51 48 50 31 36 81 102 120 129 140 143 155 164 146 133 147 176 170 170 153 177 160 150 151 149 141 152 186 173 168 176 179 171 146 141 190 251 283 11 4 351 322 293 267 256 248 230 218 213 211 198 175 169 177 176 176 164 163 159 157 160 166 170 166 162 161 158 156 159 154
45 37 33 29 35 47 53 44 24 359 13 3 44 61 54 56 52 350 50 59 61 71 95 103 128 146 122 126 138 149 151 148 154 152 143 120 125 112 119 149 221 231 101 81 333 33 270 151 138 193 213 29 35 8 351 333 302 277 249 223 238 233 221 215 185 143 164 183 181 163 162 151 138 159 162 168 172 190 189 168 155 148 160 171 183
40 42 38 31 22 19 18 20 25 18 4 344 14 17 5 355 350 13 58 27 50 35 63 84 117 123 131 138 137 131 126 127 127 121 109 99 91 101 110 100 84 66 88 157 150 218 242 230 184 168 85 62 56 348 325 304 295 281 272 228 221 219 214 184 175 187 176 170 167 165 160 172 175 195 174 168 182 190 167 137 137 159 181 200 204
29 33 30 27 20 8 10 16 13 9 14 9 4 4 4 5 344 355 13 28 22 23 23 33 84 90 107 112 113 117 121 128 116 100 86 78 78 73 68 75 105 125 137 143 153 150 129 106 95 95 80 53 11 359 50 49 37 28 26 345 339 65 79 85 53 66 133 180 165 146 121 120 153 183 182 176 187 199 173 164 153 189 210 217 213
20 45 32 32 26 347 357 359 357 16 13 14 5 352 9 353 357 360 335 348 359 348 315 342 314 102 123 121 115 108 105 98 86 74 72 62 62 68 71 27 63 45 55 103 96 96 126 124 107 105 107 96 31 37 80 76 73 70 66 59 64 66 69 67 73 89 103 136 155 141 136 154 181 191 230 202 200 173 170 181 205 233 330 352 22
360 24 30 46 101 6 359 360 359 5 9 1 357 352 353 352 11 11 29 13 353 315 287 293 284 209 157 150 133 125 121 107 98 98 92 93 82 46 53 45 54 17 16 360 13 122 141 142 145 143 118 108 72 48 82 87 88 88 81 76 82 82 82 85 83 96 95 66 48 126 133 124 96 51 69 86 106 141 111 90 85 74 25 31 8
14 11 5 358 1 17 349 30 10 352 349 350 349 342 345 347 349 359 19 4 11 0 338 327 300 298 241 179 165 144 144 138 127 143 163 174 134 63 87 137 92 2 6 3 129 105 142 147 145 149 144 131 133 69 103 94 88 86 97 98 93 92 79 76 66 35 51 59 28 33 82 100 105 96 81 78 77 86 86 84 79 67 44 12 324
5 5 351 351 343 336 334 342 340 342 336 351 339 335 332 335 328 331 346 352 340 338 328 22 16 351 196 229 200 151 149 148 158 177 167 161 180 197 181 98 81 80 65 120 103 112 91 83 129 144 149 130 141 141 116 107 102 103 99 99 97 90 81 62 80 73 51 62 55 40 69 94 100 100 86 83 89 95 105 116 126 106 64 337 276
352 350 341 330 342 15 345 290 263 127 8 306 329 317 311 312 316 322 329 322 311 299 282 277 311 78 69 82 123 157 157 158 178 183 173 178 184 143 156 132 96 99 101 96 98 88 88 57 56 101 111 124 130 122 108 108 105 102 104 98 92 96 99 86 74 95 84 52 57 63 69 90 93 89 87 87 92 103 113 131 111 87 72 305 237
348 345 342 346 339 338 323 298 238 210 204 203 210 245 264 277 288 301 304 303 301 308 300 288 272 284 56 85 71 125 141 220 194 192 213 230 166 174 152 174 109 81 82 83 82 82 78 57 47 45 68 66 105 120 110 107 105 107 109 105 98 110 123 108 95 83 98 103 92 85 82 94 100 102 107 111 109 109 118 129 136 149 188 202 128
345 342 351 346 341 339 333 329 313 278 235 220 221 243 261 273 287 275 259 264 273 265 265 268 236 218 278 293 126 156 133 102 126 132 123 276 303 307 193 153 112 106 98 98 100 98 95 74 50 48 52 48 53 76 108 95 104 105 108 114 112 132 138 116 94 99 109 118 133 130 123 132 124 122 122 124 129 133 139 127 173 194 239 288 327
329 332 334 339 332 328 328 323 327 330 324 295 259 249 246 242 253 262 265 252 251 261 252 228 225 263 268 222 186 159 164 152 121 101 85 294 334 351 308 112 99 91 104 113 115 114 107 90 65 49 50 54 58 70 100 104 101 103 100 101 115 122 112 101 120 128 138 143 151 156 165 166 160 143 143 144 159 161 108 268 264 289 282 306 325
323 319 316 316 299 301 306 306 309 316 320 324 324 308 274 253 245 246 250 254 253 253 268 269 247 216 200 202 202 216 260 216 161 136 139 191 277 284 320 15 118 126 127 125 127 119 112 117 116 92 60 58 52 73 70 101 114 112 109 99 84 72 72 79 83 90 101 122 128 130 157 189 208 225 200 226 239 207 218 244 261 264 276 287 298
300 305 310 310 299 294 289 293 298 292 292 300 303 303 302 283 264 251 246 240 232 242 247 241 243 238 221 222 210 208 210 192 181 149 144 157 176 142 90 53 116 130 143 144 158 149 149 152 147 150 150 129 96 71 57 54 74 90 92 94 89 83 80 83 83 86 86 85 109 138 294 260 260 252 254 259 255 238 226 229 245 295 16 37 349
297 303 309 308 307 303 300 296 288 277 274 270 277 271 278 281 294 295 283 285 282 257 234 240 250 246 237 222 208 200 184 182 163 140 148 154 144 138 150 162 152 165 168 158 162 154 151 156 165 170 163 174 150 107 80 68 84 101 95 96 99 95 93 95 103 102 116 122 135 168 177 199 191 196 119 103 76 28 358 6 347 355 8 301 263
305 299 305 307 304 302 300 301 300 293 279 269 270 271 252 255 278 286 284 277 269 258 271 268 255 255 249 231 203 199 198 193 152 111 96 128 162 154 153 164 171 163 157 148 150 154 155 161 171 176 170 159 142 115 104 87 77 89 88 93 89 82 80 75 63 50 48 52 57 62 74 79 82 69 63 57 50 25 25 13 2 353 336 312 295
293 295 297 293 293 292 293 294 290 289 281 276 269 264 268 265 259 271 281 293 305 309 300 295 280 244 220 214 221 229 214 186 130 115 117 100 102 158 159 170 170 171 160 164 159 167 175 177 183 173 158 148 154 150 157 150 140 114 94 86 86 84 81 87 74 47 58 47 57 56 53 40 39 35 28 25 13 14 15 3 340 329 318 313 311
310 306 301 290 290 290 288 288 286 285 280 275 269 262 257 259 261 256 251 264 274 276 268 269 278 295 279 241 206 198 199 149 108 81 61 92 148 185 203 203 215 175 170 165 183 188 187 189 169 164 161 174 171 180 202 184 165 150 137 121 109 115 115 88 96 117 88 54 58 54 47 40 38 42 26 13 1 1 345 335 327 323 324 327 331
299 300 298 298 291 287 288 287 285 285 282 271 266 265 259 253 256 269 271 257 247 249 252 256 254 264 284 304 271 225 165 142 141 133 126 86 70 75 52 166 206 247 217 208 171 180 187 165 155 170 179 173 184 188 154 140 129 116 110 112 116 118 111 102 79 71 88 83 69 75 56 60 43 35 21 2 347 342 338 333 323 315 323 332 327
297 296 293 289 287 285 284 281 281 284 278 272 266 263 270 265 257 257 266 272 265 249 237 237 233 239 243 238 241 221 158 145 149 149 138 131 106 37 37 37 32 5 176 156 167 146 148 154 152 141 86 93 115 127 134 130 120 117 117 115 111 102 89 80 100 91 48 73 71 68 29 34 28 25 11 348 343 348 332 329 321 320 323 326 317